Racine, WI

2:16 AM CDT on September 01, 2016 (GMT -0500)
Batten

Weather History for KRAC - November, 2012

Change the Weather History Date:

Tuesday, November 20, 2012

  Actual Average Record
Temperature  
Mean Temperature 42 °F -  
Max Temperature 51 °F 45 °F 62 °F (1979)
Min Temperature 33 °F 29 °F 10 °F (1969)
Degree Days  
Heating Degree Days 23    
Moisture  
Dew Point 41 °F    
Average Humidity 91    
Maximum Humidity 100    
Minimum Humidity 76    
Precipitation  
Precipitation 0.00 in - - ()
Sea Level Pressure  
Sea Level Pressure 30.14 in    
Wind  
Wind Speed 4 mph (WNW)    
Max Wind Speed 6 mph    
Max Gust Speed -    
Visibility 2 miles    
Events Fog    
Averages and records for this station are not official NWS values.
T = Trace of Precipitation, MM = Missing Value Source: NWS Daily Summary

Daily Weather History Graph

Daily Weather History Graph

Search for Another Location

Airport or City:

Trip Planner

Search our weather history database for the weather conditions in past years. The results will help you decide how hot, cold, wet, or windy it might be!

Date:

Astronomy

Nov. 20, 2012 Rise Set
Actual Time 6:49 AM CST 4:23 PM CST
Civil Twilight 6:18 AM CST 4:54 PM CST
Nautical Twilight 5:44 AM CST 5:29 PM CST
Astronomical Twilight 5:10 AM CST 6:02 PM CST
Moon 12:19 PM CST (11/20) No Moon Set
Length of Visible Light 10h 35m
Length of Day
9h 33m
First Quarter, 51% of the Moon is Illuminated
Nov 20
First Quarter
Nov 28
Full
Dec 6
Last Quarter
Dec 13
New
Dec 19
First Quarter

Hourly Weather History & Observations

Time (CST) Temp. Windchill Dew Point Humidity Pressure Visibility Wind Dir Wind Speed Gust Speed Precip Events Conditions
12:53 AM 48.0 °F - 43.0 °F 83% 30.11 in 6.0 mi South 5.8 mph - N/A   Haze
1:03 AM 48.2 °F - 42.8 °F 82% 30.10 in 6.0 mi South 5.8 mph - N/A   Haze
1:53 AM 46.9 °F - 43.0 °F 86% 30.11 in 5.0 mi South 4.6 mph - N/A   Overcast
2:53 AM 46.9 °F - 43.0 °F 86% 30.09 in 5.0 mi South 3.5 mph - N/A   Overcast
3:53 AM 48.0 °F - 43.0 °F 83% 30.09 in 5.0 mi SW 5.8 mph - N/A   Haze
4:53 AM 46.9 °F - 43.0 °F 86% 30.09 in 5.0 mi WSW 4.6 mph - N/A   Overcast
5:48 AM 46.4 °F 44.3 °F 42.8 °F 87% 30.09 in 5.0 mi West 4.6 mph - N/A   Overcast
5:53 AM 46.9 °F - 43.0 °F 86% 30.10 in 5.0 mi West 5.8 mph - N/A   Overcast
6:06 AM 46.4 °F 44.3 °F 42.8 °F 87% 30.09 in 4.0 mi West 4.6 mph - N/A   Overcast
6:53 AM 46.9 °F - 44.1 °F 90% 30.11 in 4.0 mi WNW 3.5 mph - N/A   Overcast
7:32 AM 46.4 °F 44.3 °F 44.6 °F 93% 30.11 in 2.0 mi WNW 4.6 mph - N/A   Overcast
7:53 AM 46.9 °F - 44.1 °F 90% 30.13 in 2.0 mi WNW 4.6 mph - N/A   Overcast
8:53 AM 46.9 °F - 45.0 °F 93% 30.12 in 2.0 mi NW 3.5 mph - N/A   Overcast
9:40 AM 48.2 °F - 44.6 °F 87% 30.10 in 3.0 mi NNE 3.5 mph - N/A   Overcast
9:51 AM 50.0 °F - 44.6 °F 82% 30.10 in 3.0 mi Calm Calm - N/A   Haze
9:53 AM 50.0 °F - 46.0 °F 86% 30.12 in 3.0 mi NNE 3.5 mph - N/A   Overcast
10:12 AM 50.0 °F - 44.6 °F 82% 30.11 in 3.0 mi North 3.5 mph - N/A   Haze
10:53 AM 51.1 °F - 46.0 °F 83% 30.12 in 3.0 mi Calm Calm - N/A   Haze
11:53 AM 51.1 °F - 45.0 °F 80% 30.12 in 3.0 mi NE 5.8 mph - N/A   Haze
1:53 PM 51.1 °F - 45.0 °F 80% 30.12 in 3.0 mi North 4.6 mph - N/A   Haze
2:35 PM 51.8 °F - 44.6 °F 76% 30.10 in 3.0 mi NE 5.8 mph - N/A   Haze
2:53 PM 51.1 °F - 45.0 °F 80% 30.12 in 3.0 mi NE 4.6 mph - N/A   Haze
3:30 PM 48.2 °F - 44.6 °F 87% 30.12 in 2.5 mi ENE 4.6 mph - N/A   Haze
3:41 PM 48.2 °F - 42.8 °F 82% 30.12 in 3.0 mi NE 4.6 mph - N/A   Haze
3:53 PM 48.0 °F - 43.0 °F 83% 30.13 in 3.0 mi Calm Calm - N/A   Haze
4:20 PM 44.6 °F 42.2 °F 42.8 °F 93% 30.13 in 2.5 mi East 4.6 mph - N/A   Clear
4:53 PM 44.1 °F - 43.0 °F 96% 30.14 in 3.0 mi Calm Calm - N/A   Clear
5:03 PM 44.6 °F - 42.8 °F 93% 30.14 in 2.5 mi Calm Calm - N/A   Clear
5:53 PM 42.1 °F - 39.9 °F 92% 30.17 in 2.0 mi Calm Calm - N/A   Clear
6:35 PM 39.2 °F - 39.2 °F 100% 30.15 in 1.5 mi Calm Calm - N/A   Clear
6:53 PM 41.0 °F - 39.9 °F 96% 30.17 in 1.2 mi Calm Calm - N/A   Partly Cloudy
7:11 PM 39.2 °F - 37.4 °F 93% 30.16 in 2.0 mi Calm Calm - N/A   Partly Cloudy
7:19 PM 39.2 °F - 37.4 °F 93% 30.16 in 1.8 mi Calm Calm - N/A   Clear
7:53 PM 39.0 °F - 37.9 °F 96% 30.18 in 1.8 mi Calm Calm - N/A   Clear
8:20 PM 37.4 °F - 37.4 °F 100% 30.17 in 0.8 mi Calm Calm - N/A   Scattered Clouds
8:26 PM 39.2 °F - 37.4 °F 93% 30.17 in 1.2 mi Calm Calm - N/A   Mostly Cloudy
8:38 PM 37.4 °F 34.9 °F 37.4 °F 100% 30.18 in 2.0 mi WNW 3.5 mph - N/A   Mostly Cloudy
8:48 PM 37.4 °F 33.8 °F 35.6 °F 93% 30.17 in 1.2 mi West 4.6 mph - N/A   Overcast
8:53 PM 36.0 °F 33.3 °F 35.1 °F 97% 30.19 in 1.2 mi West 3.5 mph - N/A   Overcast
9:24 PM 35.6 °F - 35.6 °F 100% 30.18 in 1.2 mi Calm Calm - N/A   Overcast
9:40 PM 35.6 °F - 35.6 °F 100% 30.17 in 0.5 mi Calm Calm - N/A Fog Fog
9:53 PM 37.0 °F - 36.0 °F 96% 30.19 in 0.8 mi Calm Calm - N/A   Mist
10:15 PM 35.6 °F - 35.6 °F 100% 30.18 in 1.0 mi Calm Calm - N/A   Mist
10:34 PM 35.6 °F - 35.6 °F 100% 30.17 in 0.8 mi Calm Calm - N/A   Mist
10:53 PM 35.1 °F - 34.0 °F 96% 30.19 in 0.5 mi Calm Calm - N/A Fog Fog
11:02 PM 35.6 °F 32.8 °F 33.8 °F 93% 30.18 in 0.8 mi West 3.5 mph - N/A   Mist
11:12 PM 33.8 °F 30.8 °F 33.8 °F 100% 30.18 in 1.5 mi West 3.5 mph - N/A   Mostly Cloudy
11:30 PM 33.8 °F - 33.8 °F 100% 30.19 in 0.2 mi Calm Calm - N/A Fog Fog
11:53 PM 35.1 °F 32.2 °F 35.1 °F 100% 30.21 in 0.2 mi West 3.5 mph - N/A Fog Fog